Location: Haieshausen
(51.8387°N, 9.9720°E)
Time: 04:24:33
(UTC+00:00)

Cosmos 2016 Rocket - Pass Details

Date: 14 July 2020
Orbit: 948 x 999 km, 83.0° (Epoch: 10 August)

Event Time Altitude Azimuth Distance (km) Brightness Sun altitude
Exits shadow 01:53:41 12° 211° (SSW) 2,531 5.5 -9.8°
Maximum altitude 01:59:14 52° 286° (WNW) 1,185 4.4 -9.3°
Drops below altitude 10° 02:05:21 10° 3° (N) 2,738 7.3 -8.7°
Sets 02:07:59 0° 9° (N) 3,697 8.2 -8.5°
